Wind_Speed
68 68 68 68 68 67 66 65 65 64 65 65 65 64 63 63 63 62 62 61 61 61 61 61 61 60 60 61 61 62 62 62 62 62 63 63 63 64 65 66 67 67 68 68 69 69 70 71 72 72 72 72 72 72 72 71 71 71 71 70 70 69 66 63 61 63 66 68 67 67 66 64 61 61 61 60 58 56 55 54 52 49 48 48 47
71 71 71 71 71 71 69 68 68 68 68 68 67 67 66 66 66 66 65 65 64 64 64 64 64 63 63 63 64 64 64 64 64 65 65 65 65 66 66 67 67 68 68 69 70 70 71 72 73 73 73 73 74 74 73 73 72 72 72 72 71 71 69 66 63 63 65 68 69 69 69 67 65 65 64 63 62 60 58 58 57 54 52 51 50
73 73 74 74 73 73 73 72 72 71 71 71 70 70 69 69 69 68 68 68 67 67 67 67 67 67 67 67 67 67 66 66 67 67 67 67 68 68 68 68 69 69 69 69 70 71 72 73 74 74 74 74 75 75 75 74 74 74 74 73 73 73 72 69 66 65 66 68 70 71 71 70 69 69 68 66 66 65 62 62 61 59 55 53 53
76 76 77 76 75 75 75 74 74 74 74 74 74 73 72 72 72 71 71 71 70 70 70 70 70 70 70 70 70 70 69 69 69 69 69 69 69 69 69 70 70 70 71 71 71 71 72 74 75 75 75 75 76 77 77 76 76 75 75 75 74 74 74 73 69 67 67 69 71 72 73 73 72 72 72 70 69 69 68 66 64 62 60 57 56
79 79 80 79 77 77 76 76 76 76 77 77 76 76 75 75 75 74 74 73 73 73 73 73 73 73 73 74 73 73 73 73 72 72 73 72 72 72 71 71 71 71 72 72 73 73 73 74 75 76 75 76 77 78 77 77 78 78 77 77 76 75 75 75 73 70 68 69 72 74 74 75 74 74 74 73 72 72 71 70 67 65 64 62 61
82 82 83 83 81 79 78 78 78 78 78 78 78 77 77 77 77 77 76 76 76 76 76 76 76 76 76 77 77 76 76 76 76 76 76 76 75 75 75 74 74 74 74 74 74 74 75 76 76 77 76 77 78 78 78 78 78 78 79 79 79 77 77 76 75 73 71 70 72 74 75 76 77 77 77 76 75 74 74 73 71 70 68 67 66
83 83 84 85 85 84 82 81 81 81 81 81 79 78 77 78 79 79 79 79 79 79 78 78 78 79 79 79 79 79 79 79 78 78 78 78 78 78 78 77 77 77 77 77 77 77 77 77 78 78 78 78 78 79 80 79 79 79 79 79 79 79 78 78 77 76 74 72 72 75 76 77 77 79 79 78 77 77 77 76 75 75 73 70 69
82 83 84 85 86 86 85 84 84 84 84 84 82 79 78 78 80 80 81 81 81 81 80 80 80 80 80 81 81 81 81 81 81 81 81 81 81 80 80 80 80 80 80 80 80 80 79 80 80 80 80 79 79 80 81 81 80 80 80 80 79 79 78 79 78 77 76 75 74 75 77 78 78 79 81 81 80 80 80 79 78 78 78 75 73
82 82 83 85 86 86 86 86 86 87 87 86 84 82 80 81 82 83 83 84 83 83 82 82 81 81 81 82 82 82 83 83 83 83 83 83 83 82 82 82 82 82 82 82 82 82 82 82 82 82 82 82 81 81 82 82 81 81 81 81 80 80 79 78 78 78 78 77 76 77 77 78 79 80 81 82 82 83 82 81 80 81 81 79 78
81 81 82 83 84 85 85 86 86 86 86 87 87 85 84 85 87 88 88 88 87 86 85 84 83 83 83 83 84 84 84 84 84 85 85 84 84 84 83 84 84 84 83 84 84 84 84 84 84 84 85 85 84 84 84 84 82 81 82 82 82 81 81 80 79 79 78 78 78 79 78 78 80 81 82 83 83 84 84 83 83 83 82 81 80
80 81 81 82 82 82 83 84 84 83 82 85 87 87 87 88 89 90 91 92 91 90 89 88 87 87 86 86 87 87 87 87 86 86 86 85 85 84 84 85 85 85 85 84 85 85 85 85 85 85 86 86 86 87 87 86 85 84 83 83 83 82 82 82 81 80 79 78 79 80 79 79 81 82 83 84 84 84 84 85 84 84 83 83 82
78 79 80 81 81 81 81 81 80 77 76 79 84 87 88 88 88 89 91 92 93 93 93 92 91 91 91 91 91 91 91 90 89 89 88 87 86 86 85 85 86 86 85 85 85 86 86 86 86 86 87 87 87 88 88 88 88 87 86 85 84 83 82 82 82 82 81 80 79 79 80 81 83 83 83 83 84 84 84 85 84 84 85 84 84
75 76 78 79 80 80 79 78 77 73 71 73 79 84 87 88 88 89 89 90 91 92 92 93 94 94 94 95 96 96 95 94 93 92 91 90 90 89 88 87 87 87 87 87 87 87 87 88 88 88 88 88 88 88 88 89 89 89 88 88 87 86 85 83 83 83 83 81 80 79 81 82 83 85 85 84 83 83 84 84 84 84 85 85 85
70 72 73 75 76 77 77 76 73 71 71 75 80 84 86 87 88 89 90 89 89 90 90 91 92 94 96 97 98 99 98 97 96 95 94 93 93 92 91 90 90 89 90 90 90 90 90 90 90 90 90 90 90 89 89 89 89 89 89 88 88 88 87 86 85 84 84 83 81 80 82 83 83 84 86 85 84 83 83 83 84 84 84 85 85
66 67 68 70 72 74 74 73 70 68 70 76 82 85 86 86 86 89 90 89 88 89 90 90 90 92 94 95 96 97 97 97 97 97 96 95 93 92 92 92 92 92 93 93 94 94 95 94 94 94 93 93 93 92 91 91 90 89 89 88 88 88 88 87 87 86 85 85 83 82 84 84 83 83 85 85 84 84 84 83 83 83 83 83 84
61 63 64 66 68 69 70 70 70 69 70 74 80 84 85 85 87 88 90 90 89 89 90 91 91 91 92 92 92 94 95 96 97 97 97 96 94 93 92 92 93 94 96 97 98 98 98 99 99 98 98 97 97 96 95 94 92 90 89 88 87 87 87 88 87 87 86 86 85 84 85 86 85 84 85 84 84 84 85 84 83 83 82 82 82
58 59 60 62 64 66 68 68 69 70 71 74 79 82 83 85 88 90 90 91 91 90 90 91 91 91 91 92 92 93 94 94 95 95 95 95 94 94 94 95 96 98 100 101 101 102 102 102 101 101 100 100 100 100 99 97 95 93 91 90 88 87 87 88 88 86 86 86 85 85 85 86 86 85 85 85 84 84 84 83 83 83 83 82 83
58 59 59 60 61 63 65 66 67 69 71 71 74 79 84 88 91 91 89 89 89 89 90 90 91 91 91 92 92 92 92 91 91 91 91 90 89 89 90 92 95 98 100 102 103 104 105 104 103 102 101 101 101 101 101 100 98 96 95 93 91 89 89 90 89 87 85 85 84 85 85 86 87 87 86 86 86 85 83 82 83 84 83 83 84
59 59 59 60 60 60 62 64 65 68 71 73 76 80 85 89 89 87 85 85 87 88 90 90 91 91 91 92 91 89 86 84 83 81 79 78 77 78 80 84 87 92 95 98 100 102 103 103 102 101 100 99 99 100 100 100 99 98 97 96 94 93 94 94 92 89 86 84 83 84 84 85 87 87 88 87 87 85 83 82 83 84 83 83 84
60 61 60 59 59 59 60 62 63 67 72 76 79 83 86 87 87 84 82 83 84 87 89 90 91 91 92 92 90 85 81 77 74 72 70 67 67 68 71 75 80 85 90 94 97 98 98 98 97 97 95 94 95 96 97 98 99 98 98 97 96 97 98 97 95 92 90 87 84 84 84 85 86 87 88 88 88 86 84 83 83 83 83 83 84
60 61 61 59 59 59 61 63 65 69 72 76 79 82 84 85 85 84 82 81 81 82 83 85 87 89 90 90 88 84 80 76 72 69 66 63 62 63 65 70 75 81 86 89 91 91 91 91 90 89 88 88 89 90 91 93 94 95 95 95 96 97 99 99 97 96 94 91 89 86 85 84 85 86 86 88 88 88 86 84 83 82 82 83 84
57 59 60 60 59 60 63 66 69 71 73 75 78 81 82 82 83 84 83 81 80 80 79 80 82 84 85 85 83 80 76 72 69 66 63 62 61 63 67 71 77 80 81 81 82 83 83 82 82 81 82 82 82 83 84 85 86 87 88 90 93 96 97 98 99 98 96 94 92 89 87 86 86 86 86 86 88 88 87 84 83 82 81 82 83
55 57 59 59 58 60 64 68 71 73 75 77 78 80 80 80 82 83 83 82 81 79 77 77 78 79 79 79 77 74 71 69 66 63 62 62 63 66 71 74 76 76 74 73 74 75 75 75 75 76 76 76 76 76 76 76 78 80 82 84 87 91 93 95 96 97 97 95 93 91 89 88 88 87 87 87 87 88 87 85 82 81 81 81 82
55 55 56 57 58 60 65 69 72 75 76 78 79 78 78 79 80 81 82 80 78 76 75 76 76 76 75 73 71 68 66 64 63 61 60 62 65 70 73 73 72 71 69 67 67 69 70 70 71 71 71 70 70 69 69 70 71 73 76 78 81 84 86 89 91 93 94 95 93 92 91 90 89 89 89 88 87 87 87 85 83 81 81 81 82
55 54 55 57 59 62 66 70 74 76 76 76 75 75 75 76 78 79 79 77 74 73 74 75 75 74 72 69 68 66 64 62 60 60 61 64 68 70 70 69 68 66 63 62 63 64 65 66 67 67 66 65 64 63 63 64 65 67 69 72 74 77 79 81 84 87 89 92 92 91 90 89 89 89 89 89 87 87 87 86 84 82 81 81 81
53 54 55 57 60 63 67 72 75 75 73 71 70 68 68 71 74 77 78 76 73 73 74 74 73 70 68 67 66 65 63 60 59 60 63 66 68 67 65 63 62 60 58 57 59 60 61 61 61 61 60 59 58 57 56 57 59 61 63 66 67 69 72 74 77 79 83 86 89 89 89 88 87 87 87 87 87 88 89 88 86 84 82 80 80
51 52 53 55 59 63 66 69 71 71 70 68 66 63 63 67 72 74 76 75 74 73 72 71 68 64 63 63 63 61 58 57 58 61 64 65 64 62 60 57 55 53 52 53 54 55 55 55 55 54 53 53 52 51 51 52 53 55 57 59 61 63 65 67 70 72 76 79 83 85 86 86 85 84 85 85 86 88 90 89 88 86 83 81 80
47 49 50 53 57 60 63 65 66 66 66 65 64 63 63 66 69 71 73 73 72 70 67 64 61 59 59 58 56 53 53 54 58 61 61 60 59 57 55 51 48 47 48 49 49 49 49 49 49 49 49 49 49 48 48 49 49 50 52 53 54 56 59 62 65 67 70 74 77 79 81 82 82 82 83 84 85 87 89 89 88 87 85 83 81
44 46 48 51 53 55 57 59 60 60 61 61 62 62 63 65 67 69 70 70 68 65 62 59 57 56 55 52 50 50 52 55 58 59 58 57 55 52 49 45 43 44 46 46 45 45 45 46 47 47 47 47 47 46 46 46 47 48 48 48 49 51 54 57 60 63 66 69 71 74 75 76 77 79 81 82 84 87 89 89 88 87 85 83 81
42 44 45 46 48 50 53 54 54 55 57 58 60 60 62 64 65 66 66 65 63 61 59 57 55 53 51 49 49 49 52 55 56 56 55 55 52 46 42 40 40 43 45 44 42 43 43 44 45 45 45 45 44 43 42 43 44 44 44 44 45 47 49 52 55 58 60 63 65 68 69 70 71 73 75 78 81 84 86 86 86 85 84 82 82
39 41 42 43 44 45 47 48 49 51 53 55 58 60 61 63 63 62 62 62 60 59 57 54 52 49 47 46 48 50 51 52 52 52 53 52 47 41 36 36 39 42 43 42 41 40 40 41 42 42 42 42 41 40 40 41 42 41 40 41 42 43 45 47 50 52 54 57 60 62 64 65 66 68 70 72 75 78 80 82 83 83 82 82 83
36 39 40 41 41 40 41 43 45 47 49 52 55 57 59 59 59 60 59 58 56 54 51 48 46 44 44 46 48 49 49 48 48 49 49 47 43 37 34 36 39 41 40 40 40 38 36 37 38 39 39 39 39 38 39 40 39 38 38 39 39 40 41 42 44 46 49 51 54 56 59 60 62 64 65 66 69 71 74 76 79 79 80 82 83
34 35 36 37 36 37 39 40 41 43 46 49 52 54 55 56 56 56 55 53 50 47 44 42 41 43 44 45 46 46 45 44 45 46 45 43 39 35 34 36 38 39 38 37 36 35 34 34 35 37 38 37 36 36 38 38 37 35 35 36 37 37 38 39 40 42 44 45 47 50 52 55 57 58 59 61 63 66 68 71 73 75 76 78 81
31 31 32 33 35 36 38 39 40 41 44 47 49 51 52 52 52 51 50 47 44 41 39 39 41 43 43 43 42 42 41 41 43 43 42 39 35 32 33 35 37 37 35 33 31 31 31 32 33 35 35 34 33 34 36 36 34 32 32 33 34 35 35 36 37 38 39 40 42 44 47 49 51 53 55 56 59 61 64 66 68 70 71 74 77
29 31 32 33 35 36 37 38 39 40 42 44 46 47 48 47 47 46 44 41 38 36 37 39 40 41 41 40 39 38 38 40 41 41 39 36 33 30 31 33 34 34 32 30 28 28 29 31 32 33 33 31 31 32 33 33 31 29 29 30 31 31 32 32 33 33 33 35 37 40 42 44 45 48 50 52 54 56 59 62 64 65 67 70 73
30 31 32 33 34 35 35 36 37 39 41 42 43 44 43 42 41 39 36 35 34 35 37 38 38 38 38 38 36 36 37 39 39 38 36 34 31 29 30 31 31 30 29 28 27 28 29 31 31 31 31 30 29 30 32 31 29 27 27 28 28 27 28 28 27 27 28 31 33 35 37 39 41 43 45 47 49 52 55 58 60 62 65 67 69
29 30 31 32 32 32 33 34 36 37 39 40 40 40 38 36 33 32 32 33 34 35 35 36 37 36 36 35 35 35 36 37 36 35 34 32 29 28 28 28 28 27 27 26 27 28 30 30 30 30 30 29 28 29 31 30 27 26 26 26 25 25 25 24 23 23 25 27 29 30 32 34 36 38 41 43 45 48 51 54 57 59 61 63 65
30 30 31 31 30 31 32 33 35 36 37 37 37 36 33 31 29 30 32 33 33 33 34 35 35 34 33 33 33 34 35 35 33 32 31 30 28 26 25 25 26 26 25 26 27 29 30 29 28 28 29 29 28 29 29 28 26 25 25 24 23 23 22 21 19 20 23 25 26 27 29 31 33 35 37 39 41 43 46 48 51 54 57 60 63
31 31 31 31 32 32 33 34 35 36 36 36 34 31 29 28 29 31 32 32 31 32 33 33 33 32 32 31 31 32 33 33 31 30 29 27 25 23 23 23 24 24 25 26 27 28 28 26 26 27 29 29 28 28 28 26 24 24 24 23 22 22 21 19 18 19 21 23 24 25 26 28 30 32 33 35 37 38 41 43 46 50 53 56 59
33 33 34 34 34 35 36 36 37 36 36 34 32 29 28 28 30 32 32 30 30 31 31 31 31 30 30 30 30 31 31 30 29 28 26 24 23 22 22 22 23 24 25 26 26 25 24 24 24 26 27 27 27 26 25 23 22 23 24 23 23 22 21 18 17 18 19 21 22 23 24 24 26 28 30 32 33 35 37 39 43 46 48 51 54
34 34 35 35 36 37 37 37 36 36 35 33 29 27 28 30 31 31 30 28 28 29 29 29 29 28 28 29 29 29 29 28 27 26 24 22 21 21 21 22 23 24 25 25 23 22 22 23 23 24 25 26 26 25 24 22 22 22 22 22 22 22 20 18 16 17 17 19 20 20 21 21 22 24 27 29 30 32 34 36 38 40 43 45 48
33 33 34 35 36 36 36 35 35 35 33 30 27 27 30 32 31 29 27 27 27 27 27 28 27 27 27 28 28 27 26 25 24 23 22 21 21 20 21 22 23 24 24 23 23 22 22 22 22 22 23 24 24 24 23 22 22 21 21 21 21 21 20 18 16 15 15 16 17 17 17 18 19 21 24 26 28 29 31 33 34 36 37 39 42
33 33 34 35 35 35 34 35 35 34 32 29 27 28 31 31 28 26 26 26 26 26 27 27 26 26 27 27 27 25 24 23 22 21 21 20 20 21 21 22 23 23 23 22 22 22 21 20 20 20 21 21 22 23 23 22 21 20 19 20 20 20 19 18 16 15 14 14 14 14 14 15 15 18 21 24 26 27 29 30 31 32 34 36 37
34 34 35 35 34 34 35 35 35 33 31 28 27 29 30 28 26 25 25 25 25 26 26 25 25 25 26 26 25 24 23 22 21 20 19 20 21 21 22 22 22 22 22 21 21 20 20 19 18 18 18 19 21 22 23 22 20 19 19 19 18 19 19 18 17 14 12 12 12 13 13 13 13 16 19 22 24 26 27 28 29 30 31 33 34
35 35 35 34 34 35 35 35 35 33 31 28 27 28 29 27 25 24 23 24 25 25 25 25 24 25 25 25 24 23 22 21 20 19 19 20 21 21 21 21 21 20 20 19 19 19 18 17 17 16 16 18 20 22 23 22 21 19 18 17 17 17 18 17 16 14 12 11 11 12 12 13 13 15 17 20 22 23 25 26 27 28 29 30 31
37 36 35 35 35 35 35 35 34 32 30 28 27 28 28 27 25 23 23 23 24 25 25 25 24 24 25 25 24 23 21 20 19 19 19 20 21 21 20 20 20 19 18 16 15 15 16 16 15 14 15 18 21 23 24 24 22 20 18 17 16 17 16 16 15 14 12 11 10 11 12 13 14 15 16 18 19 21 23 24 25 25 26 27 28
38 36 36 36 36 35 35 34 33 31 29 28 27 27 27 26 25 23 23 24 24 25 26 25 24 24 25 25 24 23 22 20 20 19 19 20 21 20 19 18 18 17 15 13 11 12 14 14 13 12 14 17 21 24 25 25 24 22 19 17 17 16 15 14 14 13 12 11 10 11 12 13 14 14 15 16 17 18 19 21 22 22 23 24 25
38 37 37 37 36 35 34 33 32 31 29 28 27 27 27 26 25 24 24 24 25 26 27 26 25 25 25 25 25 24 22 21 20 19 19 20 20 18 17 16 15 14 14 12 9 9 12 13 12 11 13 17 21 24 25 26 25 23 21 19 18 17 16 14 13 13 12 12 12 12 12 13 14 14 14 15 16 17 18 19 20 21 22 24 25
39 38 38 37 36 35 33 33 33 32 29 27 27 27 26 26 25 25 25 25 25 26 28 27 26 25 25 26 26 25 23 22 21 20 20 20 19 17 14 13 13 12 12 11 8 7 9 10 10 10 11 15 21 25 27 27 26 25 23 21 20 19 18 17 16 14 14 14 14 14 13 13 14 15 15 15 16 16 17 19 21 22 23 24 25
41 39 38 37 36 35 33 33 33 31 28 26 26 27 26 26 26 26 26 26 26 27 28 28 27 26 26 27 27 26 24 23 22 21 20 20 19 16 13 12 11 10 10 9 8 7 8 9 10 10 10 13 18 24 27 28 28 27 25 24 23 22 21 20 19 18 17 16 16 16 15 14 15 16 17 17 17 18 19 20 22 23 23 24 24
41 40 38 37 36 35 33 33 32 30 27 27 27 26 26 26 27 27 28 28 28 28 29 29 28 27 27 27 28 27 25 24 22 22 21 20 18 15 12 11 9 8 7 7 7 7 8 9 11 12 12 13 15 19 24 27 29 29 28 27 26 25 24 23 22 20 19 18 18 18 17 17 16 17 19 19 20 20 21 21 22 22 22 23 23
Wind_Direction
256 256 256 255 255 254 254 254 254 253 254 254 254 253 252 251 251 250 250 250 250 250 250 249 249 249 249 249 249 249 250 250 250 250 249 249 249 249 249 249 249 249 250 250 250 250 250 251 251 251 251 252 252 252 252 252 252 252 252 251 251 252 250 247 244 245 247 248 247 247 248 249 251 251 250 250 250 251 253 253 251 249 248 248 247
256 255 255 255 255 255 254 254 253 253 253 253 253 253 253 253 252 252 252 251 251 251 251 250 250 250 250 250 250 251 251 251 251 251 251 250 250 250 250 251 250 250 251 251 251 251 252 252 252 252 252 252 253 253 253 253 252 252 252 252 252 252 251 249 246 244 246 248 248 248 249 249 250 250 250 250 249 249 249 252 251 249 247 247 246
255 255 254 253 253 254 254 253 253 253 253 253 252 253 253 253 253 253 253 253 252 252 252 251 252 251 251 251 252 252 252 252 252 251 251 251 251 251 251 251 252 252 252 252 252 252 253 253 253 253 253 253 253 253 253 253 253 252 252 252 252 252 251 250 247 245 244 247 249 249 249 250 249 250 249 249 249 249 248 248 250 250 248 247 247
256 256 255 254 253 253 253 253 253 253 253 253 253 253 253 253 253 254 254 254 254 253 253 252 252 252 252 253 253 253 253 253 253 252 252 251 251 251 251 251 252 252 253 253 253 253 253 253 254 254 253 253 253 253 253 253 253 253 253 252 252 252 251 250 249 246 244 245 248 248 249 250 250 249 249 248 249 249 248 247 248 249 249 249 248
256 256 257 256 255 255 254 254 254 254 254 254 254 254 254 254 254 254 254 254 254 254 254 254 253 253 253 253 254 254 254 254 254 254 253 252 252 251 251 251 252 252 252 252 253 253 253 254 254 254 254 254 254 254 253 253 253 253 253 253 252 252 251 251 249 247 244 244 246 248 248 249 249 249 249 248 248 249 249 248 247 247 248 249 249
255 255 256 257 257 256 256 255 255 255 254 254 254 254 254 254 254 254 254 254 255 255 255 255 254 254 254 254 254 254 254 254 254 254 254 253 253 253 252 252 252 252 252 252 252 252 253 253 254 254 254 253 254 254 254 253 253 253 253 253 253 252 252 251 250 249 246 244 245 247 248 248 248 249 249 248 249 249 249 248 248 247 247 247 249
254 254 255 256 256 256 256 256 256 256 256 256 255 254 255 255 256 256 255 255 255 255 255 255 255 255 255 255 255 255 255 254 254 254 254 254 254 254 254 253 253 253 253 252 252 252 252 252 253 253 253 253 253 254 254 253 253 253 252 252 252 252 252 252 251 250 248 246 244 245 247 247 247 248 249 248 248 248 248 248 248 248 248 248 249
253 253 254 255 255 256 256 256 257 257 257 257 257 257 257 257 257 257 257 256 255 255 255 255 255 255 255 255 255 255 255 255 255 254 254 253 253 253 254 254 254 254 254 253 253 253 252 252 253 253 253 253 253 253 253 253 253 253 253 252 252 251 251 251 251 251 249 248 246 245 245 246 247 247 248 248 248 248 248 248 249 249 250 250 250
252 252 253 254 254 255 255 255 256 257 257 258 258 258 258 258 258 258 257 257 256 256 256 256 256 256 255 255 255 255 255 255 255 255 254 254 254 254 254 254 254 254 254 254 254 254 254 253 253 253 253 253 253 253 253 253 252 252 252 252 252 252 251 251 250 250 250 249 248 247 245 245 246 246 247 247 247 247 248 248 249 249 250 251 252
252 252 252 253 254 254 255 256 256 257 258 259 259 258 257 257 257 257 257 257 257 257 257 257 257 257 257 256 256 256 256 256 255 255 255 255 255 254 254 254 254 254 255 255 255 255 255 254 254 254 254 254 253 253 253 253 252 252 251 251 251 251 252 251 250 250 249 249 249 249 247 246 246 246 246 246 246 247 247 247 248 249 250 251 252
252 252 252 252 253 254 255 256 256 257 259 260 260 259 257 256 256 257 257 258 258 258 258 258 258 258 257 257 257 257 257 256 256 256 256 255 255 255 255 255 255 255 255 255 255 255 255 255 255 254 254 254 254 253 253 253 253 252 252 251 251 250 250 251 251 250 249 248 249 249 249 248 248 246 246 246 246 246 246 247 247 248 250 251 251
250 251 251 251 252 252 253 254 256 257 259 261 262 260 257 255 255 255 256 257 258 258 259 259 259 259 259 259 258 258 258 257 257 257 257 256 256 256 256 256 256 256 256 256 256 256 256 256 255 255 255 255 254 254 254 253 253 253 252 252 252 251 250 249 250 250 250 248 248 248 249 249 249 248 247 246 246 245 246 246 247 247 248 249 250
248 249 250 251 251 251 251 251 252 253 253 256 259 260 259 257 256 254 254 255 257 258 259 259 260 260 260 260 259 259 259 259 259 259 258 258 258 257 257 257 257 257 257 257 257 257 257 257 256 256 256 255 255 255 254 254 253 253 252 252 252 252 251 250 249 249 250 249 248 247 247 247 248 249 249 248 247 246 245 246 246 247 247 248 249
249 248 249 250 251 251 251 250 250 250 249 249 251 254 256 258 258 257 256 255 255 255 256 256 257 257 258 258 259 260 260 261 261 261 261 261 260 259 259 258 258 258 258 258 258 258 258 257 257 257 256 256 256 255 255 254 254 254 253 253 252 252 252 252 251 250 250 250 249 248 247 247 247 247 248 249 248 248 247 246 246 246 247 248 249
252 250 249 249 249 250 250 249 248 248 248 249 250 252 253 255 256 257 257 256 255 255 255 254 254 254 255 256 258 259 260 261 261 262 263 263 263 263 262 261 260 260 259 259 259 259 258 258 257 257 257 257 256 256 255 255 254 254 254 254 253 253 252 252 252 251 251 250 250 249 249 249 247 247 247 248 248 248 248 247 247 246 246 247 248
253 251 250 249 249 249 249 248 247 246 246 248 249 251 252 253 254 255 256 256 256 255 255 255 255 255 255 256 257 257 258 259 260 261 262 263 264 265 265 264 263 262 262 262 261 260 259 258 257 257 256 256 256 256 256 256 255 255 255 255 254 254 254 253 252 251 251 251 250 250 250 250 249 248 248 248 247 247 248 248 248 248 247 247 247
254 252 250 248 248 248 247 247 246 245 246 248 249 250 251 251 252 253 254 255 256 257 257 257 258 258 258 258 258 258 258 259 259 260 261 262 263 264 265 266 265 265 264 264 263 262 261 260 258 257 256 256 256 256 256 256 256 256 255 255 255 255 254 254 253 251 251 250 250 250 250 251 251 250 249 249 248 247 246 247 248 248 248 248 248
256 254 252 248 246 245 245 244 244 244 244 246 249 250 250 249 249 250 252 255 257 258 259 260 261 261 261 261 261 261 261 261 261 261 261 262 262 263 263 264 264 264 264 264 263 262 262 261 260 258 257 256 256 256 256 256 256 256 256 255 255 255 255 254 254 253 251 250 250 250 250 250 251 251 250 250 249 248 247 246 246 247 247 247 247
257 255 253 251 248 245 244 243 242 242 242 243 245 248 250 250 251 251 252 254 255 257 259 260 261 262 263 264 264 265 265 265 265 265 265 265 264 263 262 261 261 261 262 262 262 262 262 262 261 260 259 258 257 257 257 256 256 255 255 255 255 255 254 254 254 253 252 251 250 249 249 249 250 250 251 250 249 248 247 246 246 246 246 246 246
257 256 254 253 251 249 248 245 243 242 242 242 243 246 249 252 254 254 253 253 254 255 257 259 261 262 263 265 267 269 271 272 273 273 272 270 268 265 263 261 260 259 260 260 261 262 262 263 263 263 262 261 260 259 258 257 256 255 254 254 254 254 254 254 254 253 253 251 250 249 248 248 248 249 250 250 250 249 247 246 245 245 245 245 245
253 254 254 253 252 251 250 248 246 243 242 243 244 246 248 251 254 255 256 255 255 255 257 258 260 261 263 266 269 272 274 276 277 277 276 274 271 268 265 263 260 258 258 260 261 263 264 264 265 265 264 263 262 260 259 258 257 255 254 254 253 252 252 253 253 253 252 251 250 249 248 247 247 247 248 249 250 249 247 246 245 245 244 245 245
249 250 251 250 250 249 248 247 247 245 244 243 244 246 248 251 253 255 256 257 258 258 259 260 260 262 264 266 269 272 274 276 277 278 278 276 273 271 268 265 261 260 260 262 264 265 266 266 266 266 265 264 262 261 260 260 259 257 256 254 252 251 251 251 251 252 251 250 249 248 247 247 247 247 247 247 248 249 248 246 245 245 245 244 244
248 247 248 248 247 247 248 247 247 246 246 245 244 245 246 248 251 253 255 257 258 260 261 262 263 264 265 267 270 272 274 276 277 278 277 276 275 273 269 266 264 263 264 265 266 267 267 267 267 266 265 265 264 263 262 261 260 259 257 255 253 252 251 250 250 251 251 251 250 249 248 247 246 246 246 246 247 248 249 247 246 245 245 244 244
250 248 247 246 245 245 246 247 247 246 246 246 246 246 246 248 250 252 254 256 258 260 261 263 264 266 268 270 272 274 275 276 276 276 276 277 274 271 267 266 266 267 268 268 268 268 269 268 268 267 267 266 266 265 264 262 260 259 257 256 254 252 251 250 250 250 250 250 250 249 248 247 246 245 246 246 246 247 248 248 247 245 244 244 244
252 249 247 245 243 242 242 244 246 246 247 247 248 248 248 249 251 253 256 258 259 260 261 263 265 267 269 271 273 275 275 275 276 277 277 274 269 266 266 267 268 269 270 270 269 268 268 268 268 268 268 267 266 265 264 262 260 259 257 256 255 253 252 251 250 249 249 249 249 249 248 247 246 245 245 245 246 246 247 248 247 246 244 244 244
251 249 246 243 241 239 240 242 244 247 249 250 251 251 250 250 251 253 256 258 260 260 261 262 265 267 269 271 273 273 274 275 277 276 272 268 265 265 266 267 268 269 269 269 267 267 267 267 268 268 268 267 266 264 263 261 259 258 257 256 255 254 254 252 251 250 249 249 249 249 248 247 246 246 245 245 245 246 246 246 246 246 245 244 244
249 247 244 242 240 239 240 241 244 247 249 251 252 252 251 250 250 252 255 257 258 259 260 263 265 268 269 270 270 271 273 276 275 271 266 264 265 266 267 268 269 269 268 267 266 266 266 266 266 266 267 267 266 265 264 262 260 258 257 256 255 254 254 253 252 251 250 249 249 248 248 247 246 246 245 244 244 245 245 246 245 245 245 244 243
247 245 242 240 239 239 240 242 243 245 247 249 250 250 249 249 249 251 254 256 258 260 262 264 267 268 268 268 269 272 275 273 269 265 264 265 266 267 268 269 270 269 267 265 265 264 265 266 267 267 267 268 268 267 265 264 262 260 258 257 255 254 253 252 252 251 250 249 249 248 248 247 246 245 245 244 243 243 244 244 244 244 244 243 242
245 244 242 241 241 241 242 242 243 244 245 246 247 248 248 248 249 250 253 256 259 262 265 267 268 268 268 270 272 274 272 267 264 264 265 265 266 267 269 270 269 266 264 264 264 265 266 266 267 268 268 268 268 267 266 265 263 261 259 257 255 254 252 252 251 250 250 250 250 250 249 248 247 246 245 244 243 243 243 243 243 243 243 243 242
243 243 243 242 242 242 242 241 241 241 242 243 245 246 247 248 249 251 254 257 261 264 266 267 268 269 271 272 271 267 263 262 263 264 265 265 266 267 268 267 265 264 264 265 265 266 267 267 267 268 268 268 268 267 266 265 263 261 259 257 255 253 252 251 251 250 250 250 250 250 250 249 248 246 245 244 243 243 243 243 243 243 243 243 242
243 242 241 239 237 237 238 238 238 237 238 240 241 243 246 248 251 253 256 259 262 264 266 267 269 270 269 267 263 260 258 259 261 262 264 266 267 267 265 262 262 263 266 267 267 266 265 266 267 267 267 267 268 267 266 264 263 262 261 259 256 254 253 252 251 251 250 250 249 250 250 249 248 247 245 244 244 243 243 243 243 242 242 241 241
237 235 234 234 233 232 232 233 234 235 236 238 240 243 246 249 252 255 257 259 262 264 266 267 267 266 263 260 258 258 258 257 258 259 262 265 267 268 265 262 262 264 265 266 267 267 265 264 265 266 266 266 267 266 265 264 263 263 262 260 258 256 255 253 252 251 250 250 249 249 249 249 248 247 245 244 243 243 243 242 242 241 240 240 240
229 228 228 228 228 227 227 229 231 234 236 238 240 244 247 250 253 255 258 260 263 265 266 265 262 260 257 256 256 256 257 258 258 259 261 263 265 265 265 264 265 265 265 264 266 267 266 264 264 264 264 264 265 264 263 263 263 262 260 259 258 257 255 254 253 252 251 250 250 249 249 248 247 246 245 244 242 242 241 241 241 240 239 238 238
224 223 222 221 221 223 224 227 230 234 237 239 242 245 248 251 254 257 260 262 264 265 264 261 258 256 255 255 255 255 256 257 259 261 262 263 263 264 265 265 266 266 266 265 264 264 264 263 262 262 263 263 262 261 260 261 261 259 256 256 256 255 254 253 252 251 251 250 250 249 248 247 246 245 244 242 241 240 239 239 239 239 238 237 237
218 218 218 219 220 222 225 228 232 236 239 241 244 247 250 253 256 259 261 263 263 261 259 257 255 255 255 254 254 255 256 256 258 260 262 264 265 265 265 264 265 266 268 267 265 263 262 262 261 262 262 261 259 258 258 259 258 256 253 253 252 252 252 252 251 250 249 249 248 248 248 247 246 245 243 241 240 238 238 237 237 236 235 235 234
217 218 219 221 223 225 228 232 235 239 241 244 246 249 253 256 258 260 262 262 260 257 255 255 254 255 255 255 255 255 255 255 257 260 262 265 267 266 264 262 264 265 266 266 265 263 262 261 261 261 261 259 257 256 256 257 256 253 252 251 251 251 251 251 250 249 248 248 247 247 247 246 245 244 243 241 239 237 236 235 234 234 233 233 233
218 220 222 225 228 230 233 236 239 242 246 249 252 255 257 259 260 262 262 261 259 257 256 255 255 254 255 255 255 254 254 255 257 261 264 266 267 265 262 262 263 263 263 264 264 263 261 260 260 261 260 258 255 253 254 255 254 253 252 252 252 251 252 251 249 248 248 248 247 246 245 245 244 243 241 240 238 236 235 234 233 232 231 231 231
220 223 226 229 232 234 237 241 245 249 253 255 258 259 261 263 265 265 263 260 258 258 257 256 255 253 252 252 252 252 253 255 258 261 264 266 265 262 259 259 260 262 263 263 262 261 260 259 259 259 259 257 254 252 253 253 254 254 254 253 252 252 253 252 250 249 249 248 247 246 244 243 241 240 239 238 237 236 235 235 234 233 231 230 229
224 227 230 233 236 239 243 248 252 255 258 260 262 264 266 268 268 266 263 261 260 258 256 254 252 251 249 248 248 251 254 257 260 262 263 264 263 260 258 259 261 263 263 262 260 259 260 259 258 256 256 256 254 253 252 253 253 253 253 252 251 252 252 251 251 251 250 248 247 246 244 242 240 239 237 236 235 234 233 232 232 231 231 230 230
227 230 234 236 239 242 247 251 255 258 261 263 265 268 269 269 268 266 264 263 260 256 253 250 249 247 246 246 247 249 253 257 260 261 261 260 259 259 259 262 265 266 265 263 262 262 262 261 257 254 253 253 253 252 252 251 250 250 250 249 248 248 249 249 250 251 250 247 245 245 243 241 240 238 237 235 233 231 230 229 229 229 229 229 230
229 233 235 238 241 244 249 254 258 261 263 265 267 270 270 269 267 266 266 263 258 253 249 247 245 244 244 244 246 248 252 256 259 260 259 258 256 257 261 264 266 267 267 267 267 267 265 261 256 252 251 250 250 249 249 247 245 245 245 245 244 244 244 244 246 248 247 243 242 242 240 238 237 236 236 234 232 230 227 226 227 227 228 228 229
234 237 239 241 243 247 252 256 260 262 264 266 268 271 271 269 268 267 266 261 255 249 245 243 242 241 240 242 245 248 252 254 256 257 258 258 258 260 263 266 268 269 269 271 271 270 266 261 255 251 248 246 245 244 242 240 239 239 240 240 240 239 238 238 241 243 241 237 236 236 235 233 232 234 234 232 229 227 225 223 223 223 223 225 226
237 239 241 243 247 251 255 258 260 263 266 268 270 271 270 269 267 267 264 257 250 245 241 239 238 237 238 241 245 247 249 251 252 253 255 258 261 264 266 268 270 271 272 273 273 271 267 261 256 250 246 242 238 236 234 233 232 232 235 236 235 233 232 232 236 238 235 231 228 228 227 225 226 230 232 230 227 223 221 220 219 218 218 219 221
239 241 244 247 251 254 256 259 262 265 268 270 271 271 270 268 266 264 259 252 245 241 238 235 234 234 237 240 243 245 246 247 248 250 253 258 262 265 267 269 271 273 275 275 274 272 268 262 257 251 245 236 230 227 227 226 224 224 228 231 230 228 228 229 231 233 230 224 221 219 217 214 216 223 227 226 223 219 216 215 214 214 214 215 216
241 243 246 250 254 256 258 261 264 267 269 271 271 271 269 266 262 258 252 244 240 238 235 233 231 232 236 239 241 242 242 243 244 247 252 257 262 266 268 271 274 275 276 276 275 273 268 263 257 250 241 229 222 219 219 218 217 218 222 224 223 222 223 226 229 230 226 219 215 213 210 205 205 210 216 218 216 214 212 210 210 210 210 211 212
242 245 248 251 254 256 258 261 264 267 270 271 270 269 268 265 260 252 244 238 236 235 234 231 229 230 234 237 238 238 238 238 240 245 250 257 262 266 270 274 276 276 276 276 276 272 267 261 255 246 233 220 213 212 212 212 212 213 214 215 215 216 218 221 225 227 226 220 213 210 208 204 200 200 205 208 208 208 207 206 205 205 206 207 208
241 244 247 249 252 255 258 262 264 268 270 270 268 267 267 264 258 249 240 233 232 233 233 230 227 229 232 233 234 234 234 235 238 242 249 255 261 265 270 275 277 277 277 277 275 268 264 260 252 239 225 213 207 207 208 209 209 208 208 208 208 209 211 214 217 221 223 221 217 213 210 207 202 200 200 200 200 201 203 202 200 200 201 202 203
243 245 247 249 252 255 259 262 265 267 267 266 266 266 265 262 256 248 239 231 228 230 232 230 227 227 228 230 230 230 231 233 236 241 248 254 259 264 270 275 278 278 279 279 273 262 259 258 250 234 218 208 204 204 206 208 209 207 205 204 204 205 205 208 212 215 217 217 217 216 214 212 208 204 202 200 198 198 198 198 197 197 198 200 202
244 245 247 250 252 255 257 261 263 264 262 261 262 264 263 261 256 248 239 231 227 227 230 230 227 225 225 226 227 227 227 230 235 240 246 252 257 261 266 271 275 279 282 283 275 257 249 250 247 235 220 210 204 202 204 208 211 210 207 206 206 206 206 208 211 215 216 215 214 214 214 214 212 208 205 203 200 198 197 197 197 198 200 202 205
244 246 248 250 252 254 256 258 260 259 257 257 259 260 261 259 254 248 241 234 228 226 227 229 228 225 223 223 224 224 224 227 233 238 243 249 254 258 260 263 269 277 282 280 269 248 232 227 226 222 215 212 210 207 206 207 209 211 211 211 211 212 212 212 213 214 216 216 214 212 211 210 210 210 208 204 201 200 199 199 200 201 201 203 205
245 247 248 250 252 253 254 256 258 256 254 253 255 257 257 256 252 247 241 235 229 225 226 227 227 225 222 221 221 222 221 223 229 235 240 245 250 253 255 257 265 274 276 266 252 239 227 218 213 208 204 205 210 213 214 213 213 213 214 214 215 217 219 219 216 214 215 215 213 210 207 206 206 208 208 207 205 204 203 202 202 203 203 204 205
Height
10515 10516 10518 10519 10520 10522 10525 10528 10531 10532 10533 10534 10536 10539 10542 10544 10545 10547 10549 10550 10552 10554 10555 10556 10558 10560 10562 10563 10564 10565 10567 10568 10570 10573 10575 10577 10578 10580 10581 10583 10584 10586 10588 10589 10591 10592 10593 10593 10595 10597 10599 10601 10601 10603 10606 10608 10611 10613 10614 10617 10620 10622 10626 10631 10635 10634 10629 10631 10635 10637 10639 10643 10647 10648 10650 10651 10652 10654 10656 10657 10659 10661 10662 10663 10664
10505 10507 10507 10509 10510 10512 10516 10518 10520 10522 10523 10524 10526 10529 10532 10534 10536 10538 10541 10543 10545 10546 10547 10549 10550 10552 10554 10555 10556 10557 10559 10561 10563 10565 10566 10568 10569 10571 10572 10574 10575 10577 10579 10580 10582 10583 10584 10584 10586 10588 10591 10592 10592 10594 10596 10599 10602 10604 10605 10608 10611 10613 10617 10621 10626 10628 10625 10622 10626 10629 10631 10636 10640 10640 10642 10644 10645 10648 10650 10651 10652 10654 10655 10657 10658
10494 10495 10496 10498 10501 10502 10505 10508 10510 10512 10512 10514 10516 10518 10522 10524 10527 10529 10532 10534 10536 10538 10539 10541 10542 10544 10545 10546 10548 10549 10551 10552 10554 10556 10558 10559 10561 10562 10564 10565 10566 10568 10569 10571 10572 10574 10575 10575 10576 10578 10581 10582 10582 10584 10587 10589 10592 10594 10596 10598 10601 10603 10606 10612 10617 10621 10620 10616 10616 10620 10623 10626 10631 10632 10633 10637 10639 10640 10643 10644 10644 10647 10649 10651 10652
10484 10484 10485 10488 10491 10493 10495 10498 10500 10502 10503 10504 10507 10509 10512 10515 10517 10520 10522 10525 10527 10529 10530 10532 10533 10535 10536 10537 10539 10540 10541 10543 10545 10547 10548 10550 10552 10553 10555 10556 10557 10558 10560 10561 10563 10564 10565 10565 10566 10568 10571 10573 10573 10574 10577 10579 10581 10584 10586 10588 10591 10593 10596 10602 10607 10611 10614 10611 10608 10610 10614 10617 10621 10622 10624 10629 10631 10632 10634 10636 10638 10640 10642 10644 10646
10474 10475 10475 10477 10481 10484 10486 10488 10490 10491 10493 10495 10498 10501 10504 10506 10507 10510 10513 10515 10517 10519 10521 10523 10524 10525 10527 10528 10529 10530 10532 10534 10535 10537 10538 10540 10541 10543 10545 10547 10548 10549 10551 10552 10553 10554 10555 10555 10556 10558 10560 10562 10563 10563 10566 10569 10571 10574 10576 10577 10581 10584 10586 10590 10596 10600 10605 10605 10601 10601 10604 10608 10611 10613 10615 10619 10622 10624 10626 10628 10631 10633 10635 10637 10638
10465 10465 10465 10467 10470 10474 10476 10478 10478 10480 10482 10484 10487 10491 10494 10496 10498 10500 10503 10506 10508 10509 10511 10513 10514 10516 10517 10518 10519 10521 10522 10524 10525 10527 10528 10530 10531 10533 10535 10537 10538 10540 10541 10542 10543 10544 10545 10545 10545 10547 10550 10552 10552 10553 10555 10558 10561 10563 10565 10567 10569 10573 10576 10579 10584 10589 10594 10597 10595 10594 10595 10599 10601 10603 10605 10610 10613 10615 10617 10620 10622 10624 10626 10628 10630
10454 10456 10456 10457 10459 10462 10466 10467 10468 10469 10471 10472 10476 10481 10485 10487 10488 10490 10493 10495 10497 10498 10500 10502 10504 10505 10507 10508 10509 10511 10512 10513 10515 10516 10517 10519 10521 10522 10525 10526 10528 10529 10530 10531 10532 10534 10535 10535 10535 10536 10538 10541 10542 10542 10544 10547 10550 10552 10554 10556 10558 10562 10566 10568 10572 10578 10583 10587 10588 10586 10586 10589 10592 10594 10595 10599 10604 10606 10607 10610 10612 10614 10616 10620 10623
10444 10446 10446 10447 10449 10451 10454 10457 10458 10459 10460 10462 10467 10473 10477 10478 10479 10480 10481 10483 10484 10486 10488 10490 10492 10494 10496 10497 10498 10500 10501 10503 10504 10505 10506 10507 10509 10511 10513 10515 10517 10517 10518 10519 10521 10522 10524 10525 10525 10526 10527 10530 10531 10532 10533 10535 10539 10541 10543 10545 10548 10551 10555 10558 10561 10566 10571 10575 10578 10578 10578 10580 10583 10584 10585 10589 10593 10595 10596 10601 10604 10605 10608 10612 10615
10434 10436 10436 10437 10438 10440 10442 10446 10447 10448 10450 10453 10458 10464 10468 10468 10467 10467 10468 10469 10471 10474 10476 10478 10481 10482 10484 10485 10487 10488 10489 10491 10492 10493 10494 10496 10498 10500 10502 10504 10505 10506 10507 10508 10509 10511 10512 10514 10515 10515 10516 10518 10520 10521 10522 10523 10527 10531 10532 10534 10537 10540 10544 10547 10551 10554 10559 10563 10566 10567 10569 10572 10573 10574 10576 10578 10581 10584 10587 10592 10595 10595 10598 10603 10606
10424 10425 10426 10427 10428 10430 10432 10435 10437 10441 10443 10443 10446 10452 10456 10455 10454 10454 10455 10457 10459 10462 10465 10467 10469 10470 10472 10473 10474 10475 10477 10478 10479 10480 10482 10484 10487 10489 10491 10492 10493 10494 10496 10496 10497 10498 10500 10502 10503 10504 10504 10506 10507 10509 10510 10512 10515 10519 10521 10522 10526 10529 10532 10535 10539 10542 10547 10551 10554 10556 10559 10563 10563 10563 10566 10567 10569 10573 10578 10582 10585 10586 10590 10595 10597
10412 10414 10416 10417 10419 10421 10423 10424 10428 10435 10437 10432 10432 10437 10440 10441 10443 10444 10444 10445 10448 10451 10453 10454 10457 10458 10460 10461 10461 10462 10463 10464 10466 10468 10470 10473 10476 10477 10479 10479 10481 10482 10483 10484 10485 10486 10487 10489 10490 10491 10492 10493 10494 10497 10498 10500 10503 10507 10509 10511 10514 10518 10521 10524 10527 10530 10534 10540 10543 10545 10549 10552 10551 10552 10555 10557 10559 10564 10567 10571 10575 10579 10582 10585 10587
10401 10403 10405 10407 10409 10412 10414 10416 10420 10428 10430 10423 10418 10419 10421 10426 10430 10432 10432 10434 10436 10438 10440 10443 10445 10446 10447 10448 10448 10449 10449 10451 10453 10456 10458 10461 10463 10465 10467 10468 10469 10470 10471 10473 10474 10474 10474 10475 10476 10478 10479 10480 10481 10483 10485 10487 10489 10493 10497 10499 10501 10505 10509 10513 10515 10517 10522 10528 10533 10535 10538 10539 10538 10539 10543 10546 10549 10553 10557 10561 10566 10570 10572 10575 10577
10392 10393 10395 10396 10399 10401 10404 10409 10412 10419 10422 10414 10405 10402 10403 10409 10414 10417 10420 10422 10424 10426 10429 10431 10433 10434 10434 10434 10433 10434 10436 10438 10441 10443 10446 10448 10451 10453 10456 10457 10458 10459 10459 10460 10461 10461 10461 10462 10463 10464 10465 10466 10468 10470 10472 10474 10476 10479 10483 10487 10490 10493 10497 10501 10504 10507 10510 10515 10521 10525 10525 10526 10528 10528 10530 10535 10539 10543 10548 10552 10555 10559 10562 10564 10567
10382 10385 10386 10387 10388 10390 10394 10400 10404 10407 10407 10402 10393 10389 10390 10395 10399 10402 10405 10408 10410 10412 10415 10417 10419 10419 10419 10419 10419 10421 10422 10425 10428 10430 10433 10435 10438 10441 10444 10446 10447 10448 10448 10448 10448 10448 10448 10449 10450 10451 10451 10452 10454 10456 10458 10460 10462 10465 10469 10474 10478 10480 10484 10489 10493 10495 10499 10503 10509 10513 10512 10513 10518 10518 10518 10523 10530 10533 10537 10541 10544 10548 10552 10554 10557
10372 10375 10377 10377 10379 10380 10382 10389 10394 10394 10391 10387 10382 10378 10380 10384 10387 10387 10389 10393 10396 10397 10399 10402 10403 10404 10405 10406 10408 10409 10410 10413 10415 10417 10420 10422 10424 10427 10430 10432 10434 10435 10434 10434 10434 10434 10434 10435 10436 10437 10438 10438 10439 10441 10444 10446 10449 10453 10456 10461 10465 10468 10472 10476 10479 10483 10487 10491 10496 10500 10500 10501 10506 10508 10508 10512 10519 10523 10525 10529 10533 10537 10542 10546 10548
10362 10364 10366 10367 10369 10370 10372 10377 10381 10380 10377 10373 10369 10367 10371 10374 10375 10374 10374 10377 10381 10383 10385 10387 10389 10391 10393 10396 10397 10397 10399 10401 10403 10405 10407 10410 10412 10414 10416 10418 10420 10420 10419 10418 10418 10419 10419 10419 10421 10422 10423 10424 10424 10426 10429 10432 10437 10441 10445 10449 10452 10456 10459 10461 10464 10469 10474 10478 10483 10487 10488 10489 10492 10496 10498 10501 10508 10512 10513 10518 10523 10526 10531 10535 10537
10351 10352 10354 10357 10358 10359 10361 10365 10368 10367 10365 10361 10357 10358 10362 10363 10361 10360 10361 10364 10367 10371 10374 10376 10377 10380 10382 10383 10384 10385 10387 10389 10391 10393 10395 10397 10400 10402 10403 10405 10405 10404 10403 10402 10402 10402 10401 10402 10403 10405 10408 10409 10409 10411 10414 10418 10424 10429 10433 10436 10440 10444 10446 10445 10448 10455 10460 10464 10470 10474 10477 10478 10480 10484 10487 10489 10494 10498 10502 10509 10513 10514 10518 10523 10526
10339 10340 10342 10344 10346 10348 10350 10354 10356 10356 10355 10352 10347 10346 10347 10346 10345 10349 10353 10357 10359 10361 10363 10365 10366 10368 10369 10370 10371 10373 10376 10378 10379 10382 10384 10386 10389 10391 10391 10391 10390 10388 10386 10386 10385 10384 10384 10385 10386 10389 10392 10393 10395 10397 10399 10404 10410 10415 10419 10423 10427 10431 10432 10430 10433 10440 10446 10452 10457 10461 10465 10467 10468 10470 10473 10476 10480 10484 10492 10499 10500 10501 10507 10512 10513
10327 10328 10330 10332 10335 10337 10340 10343 10346 10346 10344 10341 10337 10333 10332 10332 10337 10343 10349 10351 10351 10351 10352 10353 10354 10356 10356 10356 10357 10360 10363 10366 10368 10370 10372 10375 10377 10378 10377 10376 10375 10373 10371 10370 10369 10368 10368 10369 10370 10372 10376 10379 10381 10383 10385 10388 10394 10400 10404 10408 10414 10417 10415 10414 10419 10425 10431 10438 10444 10447 10452 10455 10456 10457 10460 10462 10466 10471 10480 10486 10486 10489 10496 10499 10500
10315 10316 10319 10322 10325 10328 10330 10333 10336 10335 10333 10331 10329 10326 10325 10326 10330 10336 10339 10341 10341 10342 10342 10343 10343 10344 10344 10344 10345 10348 10351 10354 10355 10357 10359 10361 10361 10362 10362 10361 10360 10359 10357 10355 10354 10354 10355 10356 10357 10358 10361 10364 10366 10368 10370 10371 10376 10383 10388 10393 10399 10400 10398 10399 10406 10411 10416 10423 10428 10433 10437 10440 10442 10445 10447 10449 10452 10457 10465 10471 10473 10477 10483 10486 10488
10306 10307 10310 10313 10316 10319 10320 10321 10321 10321 10321 10321 10320 10319 10319 10320 10322 10325 10327 10330 10332 10333 10334 10335 10335 10336 10335 10336 10337 10339 10341 10343 10344 10344 10346 10347 10347 10347 10347 10346 10344 10343 10343 10342 10342 10344 10344 10344 10345 10345 10347 10349 10350 10351 10353 10355 10359 10366 10373 10378 10382 10383 10383 10386 10391 10394 10399 10406 10411 10417 10423 10426 10429 10432 10435 10436 10438 10442 10449 10456 10461 10465 10470 10474 10477
10298 10298 10300 10303 10307 10308 10309 10309 10308 10308 10309 10310 10310 10311 10313 10315 10315 10315 10317 10320 10323 10325 10327 10328 10328 10328 10328 10329 10330 10331 10332 10333 10334 10334 10334 10335 10334 10333 10332 10330 10328 10328 10331 10333 10333 10333 10333 10333 10333 10332 10332 10333 10335 10337 10340 10342 10346 10351 10356 10359 10362 10365 10367 10371 10374 10377 10382 10389 10395 10401 10408 10412 10415 10418 10421 10424 10426 10428 10434 10442 10448 10454 10459 10463 10465
10288 10289 10290 10294 10297 10298 10298 10297 10296 10297 10298 10298 10299 10302 10305 10307 10307 10307 10309 10311 10313 10316 10318 10319 10319 10319 10320 10320 10322 10323 10324 10324 10324 10324 10324 10324 10323 10320 10317 10315 10315 10317 10321 10324 10324 10323 10322 10322 10321 10320 10319 10320 10323 10326 10329 10331 10333 10335 10338 10341 10344 10348 10352 10357 10360 10363 10367 10372 10379 10387 10393 10397 10402 10405 10408 10412 10415 10416 10421 10428 10436 10442 10447 10450 10453
10276 10279 10281 10284 10287 10287 10286 10285 10285 10285 10287 10287 10290 10294 10297 10298 10299 10300 10301 10303 10305 10308 10309 10310 10310 10310 10311 10312 10313 10314 10315 10315 10315 10315 10315 10314 10311 10308 10305 10305 10306 10308 10312 10315 10315 10313 10312 10310 10308 10308 10309 10311 10313 10315 10318 10319 10320 10322 10323 10326 10330 10333 10337 10342 10346 10349 10353 10357 10363 10370 10376 10381 10387 10391 10394 10399 10403 10406 10410 10416 10423 10429 10435 10438 10441
10265 10268 10270 10273 10274 10275 10275 10274 10273 10273 10275 10278 10282 10286 10290 10291 10292 10292 10293 10296 10299 10301 10302 10302 10302 10302 10303 10304 10305 10306 10306 10306 10306 10307 10306 10303 10300 10297 10297 10298 10298 10300 10304 10305 10305 10303 10301 10300 10298 10298 10299 10301 10303 10305 10307 10307 10308 10310 10311 10313 10316 10320 10324 10328 10332 10336 10340 10343 10346 10353 10360 10365 10371 10377 10381 10386 10392 10397 10400 10403 10409 10415 10421 10426 10430
10254 10256 10258 10260 10261 10262 10263 10263 10262 10264 10268 10271 10275 10280 10283 10285 10285 10286 10286 10289 10292 10293 10294 10294 10295 10296 10297 10298 10298 10298 10298 10298 10299 10297 10294 10292 10290 10290 10290 10291 10292 10294 10296 10296 10294 10293 10292 10291 10291 10291 10291 10292 10293 10295 10296 10297 10298 10299 10300 10302 10305 10309 10312 10316 10320 10324 10327 10329 10332 10338 10344 10350 10357 10363 10369 10375 10382 10385 10387 10390 10396 10402 10409 10415 10419
10243 10244 10247 10249 10250 10252 10253 10254 10256 10259 10261 10264 10268 10273 10276 10278 10278 10279 10280 10282 10284 10285 10286 10287 10288 10290 10291 10292 10292 10291 10291 10290 10289 10286 10284 10283 10283 10283 10283 10285 10286 10287 10287 10286 10285 10285 10284 10283 10283 10283 10283 10283 10285 10286 10287 10288 10289 10290 10291 10293 10296 10299 10302 10304 10308 10311 10314 10316 10319 10323 10329 10335 10344 10351 10356 10362 10369 10371 10373 10378 10384 10390 10396 10402 10408
10233 10235 10238 10239 10240 10242 10245 10247 10250 10253 10255 10259 10262 10264 10267 10269 10270 10272 10273 10274 10275 10276 10278 10280 10282 10283 10284 10284 10284 10284 10283 10280 10278 10276 10276 10276 10276 10276 10276 10278 10280 10279 10278 10278 10278 10278 10277 10276 10276 10276 10277 10277 10277 10278 10279 10280 10281 10282 10283 10285 10288 10290 10292 10294 10297 10299 10302 10304 10307 10310 10316 10323 10331 10337 10342 10348 10354 10357 10359 10364 10371 10377 10382 10390 10398
10226 10227 10228 10230 10233 10236 10239 10242 10244 10247 10250 10252 10254 10256 10258 10260 10262 10264 10265 10266 10267 10269 10271 10273 10274 10275 10275 10276 10276 10275 10273 10270 10268 10268 10269 10268 10269 10270 10271 10272 10273 10272 10270 10271 10271 10271 10271 10270 10269 10270 10270 10270 10270 10271 10272 10273 10273 10274 10275 10278 10280 10282 10283 10285 10287 10289 10291 10294 10297 10300 10305 10312 10319 10324 10329 10335 10340 10343 10346 10352 10358 10364 10371 10379 10387
10219 10220 10222 10226 10229 10231 10234 10236 10239 10241 10243 10245 10247 10249 10251 10253 10255 10257 10258 10259 10260 10262 10264 10266 10267 10268 10268 10268 10267 10266 10264 10263 10262 10261 10261 10261 10262 10264 10266 10267 10266 10264 10263 10264 10265 10265 10264 10264 10264 10264 10263 10263 10263 10264 10265 10266 10265 10266 10269 10270 10272 10273 10275 10276 10278 10280 10283 10286 10289 10291 10296 10302 10307 10312 10317 10322 10327 10330 10335 10341 10347 10354 10361 10369 10375
10213 10215 10217 10219 10222 10225 10228 10230 10233 10234 10236 10238 10240 10242 10244 10246 10248 10250 10252 10252 10254 10256 10258 10260 10261 10261 10260 10259 10258 10257 10258 10258 10256 10255 10254 10254 10255 10259 10261 10262 10260 10257 10257 10258 10258 10259 10259 10258 10257 10258 10257 10257 10257 10258 10258 10258 10259 10260 10262 10263 10265 10266 10268 10269 10271 10273 10276 10278 10280 10283 10286 10291 10296 10300 10305 10310 10315 10319 10325 10330 10336 10343 10351 10357 10362
10207 10208 10210 10212 10216 10219 10222 10223 10225 10228 10230 10232 10234 10236 10239 10241 10243 10244 10245 10246 10248 10251 10253 10254 10254 10253 10252 10251 10250 10250 10251 10251 10250 10249 10248 10248 10250 10253 10256 10255 10253 10251 10252 10252 10252 10253 10253 10252 10252 10252 10251 10251 10252 10252 10252 10252 10253 10255 10257 10257 10259 10260 10262 10263 10265 10267 10268 10270 10272 10275 10278 10282 10285 10289 10294 10300 10304 10309 10314 10320 10325 10332 10339 10345 10350
10200 10202 10205 10208 10211 10213 10215 10217 10220 10223 10225 10227 10230 10232 10234 10235 10237 10238 10239 10241 10244 10245 10246 10247 10246 10245 10244 10244 10244 10244 10244 10244 10243 10242 10243 10244 10246 10249 10249 10248 10246 10246 10246 10247 10246 10247 10247 10247 10246 10246 10246 10247 10247 10247 10247 10247 10248 10250 10251 10252 10253 10255 10256 10258 10259 10260 10262 10264 10266 10268 10271 10273 10277 10280 10285 10290 10294 10298 10304 10309 10314 10321 10328 10334 10338
10196 10199 10202 10204 10206 10208 10210 10213 10216 10218 10221 10223 10225 10227 10229 10231 10232 10233 10235 10237 10238 10240 10240 10239 10238 10237 10237 10238 10238 10238 10238 10238 10237 10237 10238 10240 10242 10244 10243 10242 10240 10240 10240 10241 10242 10242 10241 10241 10241 10241 10241 10242 10243 10243 10242 10243 10244 10246 10247 10248 10249 10250 10251 10253 10254 10255 10257 10259 10260 10262 10264 10266 10269 10272 10276 10280 10284 10289 10294 10299 10304 10310 10317 10322 10327
10194 10196 10198 10201 10203 10205 10207 10210 10213 10215 10217 10219 10221 10223 10225 10227 10228 10229 10230 10231 10233 10233 10233 10232 10231 10231 10231 10232 10232 10233 10233 10232 10231 10232 10233 10235 10237 10238 10238 10236 10235 10235 10235 10236 10237 10237 10236 10236 10237 10237 10237 10238 10239 10238 10238 10238 10240 10242 10243 10244 10245 10246 10247 10248 10250 10251 10252 10253 10254 10256 10258 10260 10262 10265 10268 10272 10276 10280 10284 10289 10294 10299 10305 10310 10316
10191 10193 10196 10198 10200 10203 10205 10208 10210 10212 10213 10215 10217 10219 10221 10223 10224 10224 10225 10225 10226 10226 10225 10225 10225 10225 10225 10226 10227 10228 10228 10227 10227 10228 10229 10231 10232 10233 10232 10231 10231 10231 10231 10231 10232 10232 10232 10232 10232 10233 10233 10234 10234 10234 10234 10234 10236 10238 10239 10240 10241 10242 10243 10244 10246 10247 10248 10248 10249 10251 10252 10254 10256 10258 10261 10264 10268 10272 10276 10280 10284 10289 10294 10300 10306
10189 10191 10193 10195 10198 10200 10203 10205 10206 10208 10210 10212 10214 10215 10217 10218 10219 10219 10219 10219 10219 10219 10219 10219 10220 10220 10221 10222 10223 10223 10223 10223 10223 10224 10225 10226 10227 10228 10227 10227 10227 10227 10227 10227 10227 10227 10227 10227 10228 10229 10229 10229 10230 10230 10230 10231 10233 10234 10235 10236 10237 10238 10239 10241 10242 10243 10244 10244 10245 10246 10247 10249 10250 10253 10255 10258 10261 10264 10268 10272 10276 10281 10286 10292 10297
10186 10188 10190 10192 10195 10197 10199 10201 10202 10204 10206 10208 10209 10210 10211 10212 10213 10213 10212 10212 10213 10214 10214 10214 10215 10216 10217 10218 10218 10218 10218 10218 10219 10220 10221 10222 10223 10223 10223 10223 10223 10223 10223 10223 10223 10222 10223 10224 10225 10225 10225 10225 10226 10226 10226 10227 10229 10231 10232 10233 10234 10235 10236 10237 10239 10240 10240 10240 10241 10242 10243 10244 10246 10248 10250 10252 10255 10259 10262 10266 10270 10275 10279 10283 10288
10183 10185 10187 10190 10192 10194 10195 10197 10199 10200 10202 10203 10204 10205 10206 10207 10207 10207 10206 10207 10208 10208 10209 10209 10210 10211 10213 10213 10214 10214 10214 10214 10215 10216 10217 10218 10218 10219 10219 10219 10219 10219 10219 10219 10218 10219 10219 10221 10221 10221 10221 10221 10221 10222 10223 10224 10226 10227 10228 10229 10230 10231 10232 10234 10235 10236 10236 10237 10237 10238 10239 10241 10242 10244 10246 10248 10251 10254 10257 10261 10265 10268 10272 10277 10280
10180 10182 10185 10187 10189 10190 10192 10194 10195 10196 10197 10199 10200 10201 10202 10202 10202 10201 10201 10202 10203 10203 10204 10205 10206 10207 10208 10209 10210 10210 10210 10211 10211 10212 10213 10214 10214 10215 10215 10215 10215 10215 10214 10214 10215 10216 10216 10217 10217 10217 10217 10217 10217 10218 10219 10221 10223 10224 10224 10226 10227 10228 10229 10231 10232 10233 10233 10234 10235 10236 10236 10238 10239 10240 10242 10244 10247 10250 10253 10256 10259 10263 10267 10271 10275
10178 10180 10182 10184 10186 10188 10189 10190 10191 10192 10193 10195 10196 10197 10197 10196 10196 10196 10197 10197 10197 10198 10199 10200 10201 10203 10204 10205 10205 10206 10207 10207 10208 10208 10209 10210 10210 10211 10211 10211 10211 10211 10210 10211 10212 10212 10212 10213 10212 10212 10212 10213 10214 10215 10216 10218 10219 10220 10221 10222 10224 10225 10227 10229 10230 10230 10231 10232 10233 10234 10234 10235 10236 10238 10239 10241 10244 10246 10249 10252 10255 10259 10264 10267 10272
10176 10178 10180 10182 10183 10184 10185 10186 10187 10188 10189 10190 10192 10192 10191 10191 10191 10192 10192 10192 10193 10194 10195 10196 10197 10199 10200 10201 10202 10202 10203 10204 10204 10205 10205 10206 10207 10207 10208 10208 10207 10207 10207 10208 10208 10208 10208 10208 10208 10208 10208 10209 10210 10212 10213 10215 10216 10217 10218 10219 10221 10222 10224 10226 10227 10228 10229 10230 10231 10232 10232 10233 10234 10235 10237 10239 10241 10243 10246 10248 10252 10256 10260 10263 10267
10173 10175 10176 10177 10178 10180 10181 10182 10183 10183 10185 10186 10187 10187 10186 10186 10186 10187 10187 10188 10188 10189 10191 10192 10194 10195 10196 10197 10198 10199 10199 10200 10201 10201 10202 10203 10203 10204 10204 10204 10204 10204 10204 10204 10204 10204 10204 10204 10204 10204 10205 10206 10207 10208 10210 10211 10213 10215 10216 10217 10218 10219 10221 10223 10225 10226 10227 10228 10229 10230 10231 10232 10233 10234 10236 10237 10239 10241 10244 10246 10249 10253 10256 10259 10263
10169 10171 10172 10173 10174 10176 10177 10177 10178 10179 10180 10181 10182 10182 10182 10181 10182 10183 10183 10184 10184 10185 10187 10189 10190 10191 10192 10193 10194 10195 10196 10197 10197 10198 10199 10200 10200 10201 10201 10201 10201 10201 10201 10201 10201 10200 10200 10200 10200 10200 10201 10202 10204 10205 10207 10209 10211 10212 10213 10214 10216 10217 10219 10221 10223 10224 10226 10227 10228 10229 10229 10230 10232 10233 10235 10237 10238 10240 10242 10244 10247 10250 10253 10257 10260
10165 10167 10168 10169 10171 10172 10172 10173 10174 10175 10176 10177 10178 10177 10177 10177 10178 10178 10179 10180 10180 10181 10183 10185 10187 10188 10189 10190 10191 10192 10193 10194 10195 10196 10197 10197 10197 10198 10198 10198 10198 10198 10198 10198 10197 10196 10196 10196 10196 10197 10198 10199 10200 10202 10204 10206 10209 10210 10211 10212 10214 10215 10217 10219 10221 10222 10224 10225 10226 10227 10228 10229 10230 10232 10234 10236 10237 10239 10241 10243 10246 10249 10252 10255 10259
10160 10162 10163 10165 10166 10167 10168 10169 10170 10170 10172 10172 10173 10173 10172 10172 10173 10174 10175 10176 10177 10178 10180 10182 10184 10185 10186 10186 10187 10188 10189 10191 10192 10193 10194 10194 10195 10195 10196 10196 10195 10195 10195 10195 10194 10193 10193 10193 10193 10194 10195 10196 10197 10199 10201 10204 10206 10208 10209 10211 10212 10214 10215 10217 10219 10220 10221 10223 10224 10226 10227 10228 10229 10231 10232 10234 10236 10238 10241 10243 10246 10248 10251 10254 10257
10155 10157 10159 10160 10161 10162 10163 10164 10165 10167 10167 10168 10168 10168 10168 10168 10168 10170 10171 10172 10173 10175 10176 10178 10180 10182 10183 10183 10184 10185 10186 10188 10189 10190 10191 10192 10192 10193 10193 10193 10193 10192 10192 10192 10192 10191 10190 10190 10190 10191 10192 10193 10195 10197 10199 10201 10204 10206 10208 10209 10211 10212 10214 10216 10217 10219 10220 10221 10223 10224 10225 10227 10228 10229 10231 10233 10235 10238 10240 10243 10245 10248 10251 10253 10256
10151 10153 10154 10156 10157 10158 10159 10160 10161 10162 10163 10164 10164 10164 10164 10164 10164 10165 10167 10168 10170 10171 10173 10175 10177 10179 10180 10180 10181 10182 10183 10185 10186 10188 10189 10189 10190 10191 10191 10191 10190 10190 10189 10189 10190 10189 10189 10188 10188 10189 10190 10192 10193 10195 10197 10199 10202 10204 10206 10208 10210 10211 10213 10215 10216 10217 10219 10220 10222 10223 10224 10226 10228 10229 10231 10233 10235 10237 10239 10242 10244 10247 10249 10251 10254
10146 10148 10150 10151 10152 10153 10155 10156 10157 10158 10159 10160 10160 10160 10160 10160 10160 10161 10163 10165 10166 10168 10169 10171 10173 10175 10177 10177 10178 10179 10181 10182 10184 10185 10186 10187 10188 10189 10189 10189 10188 10188 10187 10187 10187 10187 10187 10187 10188 10188 10189 10190 10192 10193 10195 10197 10200 10202 10205 10207 10209 10211 10212 10214 10215 10216 10218 10219 10221 10222 10223 10225 10227 10229 10231 10232 10234 10236 10239 10241 10243 10245 10247 10249 10252
10141 10143 10144 10146 10147 10149 10150 10152 10153 10153 10154 10155 10155 10156 10156 10156 10156 10157 10159 10161 10163 10165 10166 10168 10170 10171 10173 10175 10175 10176 10178 10179 10181 10182 10184 10185 10186 10187 10187 10187 10186 10186 10186 10185 10185 10185 10186 10186 10186 10187 10188 10189 10191 10192 10193 10195 10197 10200 10202 10205 10207 10209 10211 10213 10214 10216 10217 10218 10220 10221 10223 10225 10227 10228 10230 10232 10233 10236 10238 10240 10242 10244 10246 10249 10252
10135 10137 10139 10140 10142 10143 10145 10147 10148 10149 10150 10150 10151 10151 10152 10152 10153 10154 10155 10157 10159 10161 10163 10165 10166 10168 10170 10171 10173 10174 10175 10177 10178 10180 10181 10182 10184 10184 10185 10185 10185 10185 10184 10184 10183 10183 10184 10184 10185 10185 10187 10188 10189 10191 10192 10194 10195 10197 10199 10202 10204 10206 10208 10210 10213 10215 10216 10217 10219 10221 10222 10224 10226 10227 10229 10231 10233 10235 10237 10239 10242 10244 10246 10249 10251